Weather in Michigan City

United States     41°43′08″N   86°54′15″W
temp.,
°C
wind,
m/s
gust,
m/s
humid.,
%
clouds,
%
prec.,
mm/h
press.,
hPa
HPBL,
m
7 may, fri
fri701:00+8sw33695 0.0 1017151
04:00+7sw566963 0.0 1016223
07:00+8w81277100 0.0 1016677
10:00+9wnw897720 0.2 1016933
13:00+8n811684 0.3 1016711
16:00+7n811765 0.0 1017667
19:00+8nne68715 0.0 1017557
22:00+7n68735 0.0 1018645
8 may, sat
sat801:00+7n67695 0.0 1019719
04:00+7nnw45655 0.0 1020727
07:00+7n45644 0.0 1021796
10:00+7nne436222 0.0 1021717
13:00+7nne436497 0.0 1020390
16:00+7ne5561100 0.0 1019237
19:00+7ene3369100 0.8 1018161
22:00+6ese5689100 2.9 1017279
9 may, sun
sun901:00+6ene8993100 7.6 1015538
04:00+7e101291100 5.0 1011631
07:00+6e111592100 17.8 1009770
10:00+5ene121692100 10.3 1007690
13:00+6ne111392100 12.6 1009666
16:00+7ne111489100 1.6 1010910
19:00+8nne91179100 1.6 10131072
22:00+8nne577895 0.0 1015528
10 may, mon
mon1001:00+9nne577754 0.0 1016557
04:00+8nne88677 0.0 1019635
07:00+7n8106232 0.0 1021749
10:00+7n896324 0.0 1023904
13:00+6n786915 0.0 1024854
16:00+7n686514 0.0 1025626
19:00+7nne68661 0.0 1025588
22:00+7n576414 0.0 1026496
11 may, tue
tue1101:00+7n45665 0.0 1027408
04:00+7nnw34675 0.0 1027395
07:00+7wnw34690 0.0 1029382
10:00+8wnw44690 0.0 1030318
13:00+8n34700 0.0 1030220
16:00+9ne34640 0.0 1028163
19:00+10ene34653 0.0 1028106
22:00+10ese226166 0.0 103036